Weather in Sloboda

Russia / Voronezh Oblast     51°08′08″N   40°17′36″E
temp.,
°C
wind,
m/s
gust,
m/s
humid.,
%
clouds,
%
prec.,
mm/h
press.,
hPa
HPBL,
m
29 june, wed
wed2900:00+17ene410880 0.0 1018261
03:00+14ene38845 0.0 1019169
06:00+15ene38790 0.0 1019219
09:00+19ene45600 0.0 1020606
12:00+21ene45513 0.0 10201867
15:00+22ne334762 0.0 10192140
18:00+20n346630 0.0 1019120
21:00+16e337160 0.0 101933
30 june, thu
thu3000:00+14ese227172 0.0 101913
03:00+12s117277 0.0 101910
06:00+14e117375 0.0 101945
09:00+19wnw1261100 0.0 1019528
12:00+21nw3455100 0.1 10181659
15:00+22n345594 0.2 1017991
18:00+22nw24585 0.0 10161392
21:00+18nw3666100 0.0 1016139
1 july, fri
fri100:00+15n33800 0.0 101646
03:00+13nw33801 0.0 101640
06:00+14nw38820 0.0 1015217
09:00+20n59604 0.0 1016671
12:00+22n79495 0.0 10162351
15:00+21nne810471 0.0 10162101
18:00+18nne79570 0.0 10171191
21:00+12nne34720 0.0 101961
2 july, sat
sat200:00+11n36750 0.0 101999
03:00+10nnw35775 0.0 102083
06:00+12nnw410754 0.0 1020241
09:00+18nnw58563 0.0 1020805
12:00+20n57475 0.0 10181648
15:00+22nnw57455 0.0 10171844
18:00+21nnw37565 0.0 1016893
21:00+16wnw33755 0.0 101739
3 july, sun
sun300:00+15w3573100 0.0 101565
03:00+16w499213 0.4 1014219
06:00+16nw36943 0.0 1014203
09:00+22n35710 0.0 1013551
12:00+25nnw57560 0.1 10131699
15:00+26n68500 0.1 10131965
18:00+24n58620 0.0 1014973
21:00+18n3380100 0.0 101530